| time (UTC) | temp F | wind direction | speed MPH | gust MPH | rain 1hr in | rain 24hr in | rain mn in | humidity % | barometer mb |
| 20260507054533 | 53 | 282 | 4.0 | 12.0 | 0.00 | 0.14 | 0.00 | 96 | 1006.7 |
| 20260507053025 | 53 | 274 | 6.0 | 15.0 | 0.00 | 0.14 | 0.00 | 96 | 1007.0 |
| 20260507051604 | 52 | 284 | 8.0 | 19.0 | 0.00 | 0.14 | 0.00 | 96 | 1007.0 |
| 20260507050103 | 52 | 264 | 7.0 | 16.0 | 0.00 | 0.14 | 0.00 | 96 | 1007.2 |
| 20260507044600 | 52 | 124 | 10.0 | 23.0 | 0.00 | 0.14 | 0.00 | 96 | 1007.2 |
| 20260507043104 | 53 | 260 | 8.0 | 19.0 | 0.00 | 0.14 | 0.00 | 95 | 1007.1 |
| 20260507041540 | 53 | 274 | 9.0 | 19.0 | 0.00 | 0.14 | 0.00 | 95 | 1007.3 |
| 20260507040034 | 53 | 253 | 11.0 | 21.0 | 0.00 | 0.14 | 0.14 | 95 | 1007.5 |
| 20260507034551 | 53 | 273 | 12.0 | 21.0 | 0.00 | 0.14 | 0.14 | 95 | 1007.6 |
| 20260507033056 | 53 | 124 | 11.0 | 21.0 | 0.00 | 0.14 | 0.14 | 95 | 1007.6 |
| 20260507031618 | 53 | 266 | 11.0 | 20.0 | 0.00 | 0.14 | 0.14 | 95 | 1007.7 |
| 20260507030100 | 53 | 124 | 11.0 | 18.0 | 0.00 | 0.14 | 0.14 | 95 | 1007.5 |
| 20260507024602 | 53 | 273 | 8.0 | 17.0 | 0.00 | 0.14 | 0.14 | 95 | 1007.5 |
| 20260507023100 | 53 | 264 | 9.0 | 18.0 | 0.00 | 0.14 | 0.14 | 95 | 1007.7 |
| 20260507021553 | 54 | 250 | 8.0 | 15.0 | 0.00 | 0.14 | 0.14 | 95 | 1007.9 |
| 20260507020038 | 54 | 124 | 10.0 | 18.0 | 0.00 | 0.14 | 0.14 | 95 | 1008.1 |
| 20260507014605 | 54 | 249 | 7.0 | 18.0 | 0.00 | 0.14 | 0.14 | 95 | 1008.2 |
| 20260507013111 | 54 | 124 | 8.0 | 19.0 | 0.00 | 0.14 | 0.14 | 95 | 1008.4 |
| 20260507011520 | 54 | 255 | 10.0 | 18.0 | 0.01 | 0.14 | 0.14 | 94 | 1008.5 |
| 20260507010004 | 55 | 243 | 8.0 | 22.0 | 0.01 | 0.14 | 0.14 | 95 | 1008.3 |
| 20260507004509 | 55 | 124 | 13.0 | 20.0 | 0.01 | 0.14 | 0.14 | 94 | 1008.3 |
| 20260507003011 | 55 | 124 | 16.0 | 26.0 | 0.01 | 0.14 | 0.14 | 94 | 1008.1 |
| 20260507001504 | 55 | 254 | 13.0 | 24.0 | 0.03 | 0.13 | 0.13 | 94 | 1008.0 |
| 20260507000004 | 55 | 259 | 11.0 | 22.0 | 0.06 | 0.13 | 0.13 | 94 | 1008.0 |
| 20260506234502 | 55 | 210 | 12.0 | 25.0 | 0.09 | 0.13 | 0.13 | 94 | 1008.0 |
| 20260506233104 | 55 | 238 | 10.0 | 18.0 | 0.11 | 0.13 | 0.13 | 94 | 1008.1 |
| 20260506231549 | 55 | 232 | 12.0 | 22.0 | 0.09 | 0.10 | 0.10 | 93 | 1007.9 |
| 20260506230028 | 55 | 207 | 14.0 | 25.0 | 0.07 | 0.07 | 0.07 | 93 | 1008.2 |
| 20260506224530 | 55 | 185 | 12.0 | 23.0 | 0.04 | 0.04 | 0.04 | 93 | 1008.4 |
| 20260506223019 | 55 | 124 | 15.0 | 31.0 | 0.02 | 0.02 | 0.02 | 92 | 1008.5 |
| 20260506221604 | 55 | 232 | 15.0 | 24.0 | 0.01 | 0.01 | 0.01 | 91 | 1008.7 |
| 20260506220007 | 56 | 235 | 14.0 | 25.0 | 0.00 | 0.00 | 0.00 | 90 | 1008.6 |
| 20260506214603 | 56 | 238 | 16.0 | 29.0 | 0.00 | 0.00 | 0.00 | 90 | 1008.4 |
| 20260506213046 | 56 | 211 | 14.0 | 23.0 | 0.00 | 0.00 | 0.00 | 90 | 1008.6 |
| 20260506211611 | 56 | 246 | 14.0 | 27.0 | 0.00 | 0.00 | 0.00 | 90 | 1008.9 |
| 20260506210005 | 57 | 124 | 14.0 | 25.0 | 0.00 | 0.00 | 0.00 | 89 | 1009.0 |
| 20260506204602 | 56 | 231 | 11.0 | 23.0 | 0.00 | 0.00 | 0.00 | 89 | 1009.0 |
| 20260506203108 | 56 | 124 | 15.0 | 25.0 | 0.00 | 0.00 | 0.00 | 88 | 1009.0 |
| 20260506201527 | 57 | 239 | 13.0 | 29.0 | 0.00 | 0.00 | 0.00 | 87 | 1009.2 |
| 20260506200032 | 57 | 270 | 14.0 | 24.0 | 0.00 | 0.00 | 0.00 | 87 | 1009.2 |
| 20260506194546 | 57 | 247 | 12.0 | 25.0 | 0.00 | 0.00 | 0.00 | 87 | 1009.5 |
| 20260506193030 | 57 | 124 | 15.0 | 28.0 | 0.00 | 0.00 | 0.00 | 86 | 1009.6 |
| 20260506191535 | 57 | 124 | 12.0 | 22.0 | 0.00 | 0.00 | 0.00 | 86 | 1009.7 |
| 20260506190039 | 57 | 239 | 12.0 | 26.0 | 0.00 | 0.00 | 0.00 | 86 | 1009.9 |
| 20260506184612 | 58 | 124 | 15.0 | 26.0 | 0.00 | 0.00 | 0.00 | 85 | 1009.7 |
| 20260506183100 | 58 | 124 | 14.0 | 30.0 | 0.00 | 0.00 | 0.00 | 85 | 1010.2 |
| 20260506181505 | 58 | 241 | 14.0 | 24.0 | 0.00 | 0.00 | 0.00 | 85 | 1010.5 |
| 20260506180107 | 58 | 227 | 14.0 | 29.0 | 0.00 | 0.00 | 0.00 | 85 | 1010.7 |
| 20260506174502 | 58 | 268 | 13.0 | 26.0 | 0.00 | 0.00 | 0.00 | 84 | 1011.2 |
| 20260506173006 | 59 | 124 | 14.0 | 24.0 | 0.00 | 0.00 | 0.00 | 84 | 1011.1 |
| 20260506171519 | 59 | 124 | 14.0 | 28.0 | 0.00 | 0.00 | 0.00 | 84 | 1011.2 |
| 20260506170023 | 59 | 124 | 17.0 | 26.0 | 0.00 | 0.00 | 0.00 | 85 | 1011.3 |
| 20260506164537 | 58 | 234 | 15.0 | 28.0 | 0.00 | 0.00 | 0.00 | 85 | 1011.7 |
| 20260506163025 | 58 | 124 | 14.0 | 28.0 | 0.00 | 0.00 | 0.00 | 85 | 1011.7 |
| 20260506161617 | 58 | 124 | 12.0 | 20.0 | 0.00 | 0.00 | 0.00 | 85 | 1012.0 |
| 20260506160113 | 58 | 260 | 12.0 | 23.0 | 0.00 | 0.00 | 0.00 | 85 | 1012.3 |
| 20260506154550 | 58 | 124 | 11.0 | 23.0 | 0.00 | 0.00 | 0.00 | 85 | 1012.6 |
| 20260506153039 | 57 | 272 | 13.0 | 26.0 | 0.00 | 0.00 | 0.00 | 85 | 1012.7 |
| 20260506151554 | 58 | 239 | 12.0 | 23.0 | 0.00 | 0.00 | 0.00 | 85 | 1012.8 |
| 20260506150031 | 58 | 124 | 11.0 | 24.0 | 0.00 | 0.00 | 0.00 | 84 | 1012.7 |
| 20260506144518 | 58 | 250 | 12.0 | 21.0 | 0.00 | 0.00 | 0.00 | 85 | 1012.7 |
| 20260506143015 | 58 | 271 | 9.0 | 19.0 | 0.00 | 0.00 | 0.00 | 86 | 1012.6 |
| 20260506141613 | 57 | 239 | 8.0 | 19.0 | 0.00 | 0.00 | 0.00 | 85 | 1012.5 |
| 20260506140108 | 58 | 124 | 10.0 | 22.0 | 0.00 | 0.00 | 0.00 | 85 | 1012.6 |
| 20260506134600 | 58 | 124 | 12.0 | 22.0 | 0.00 | 0.00 | 0.00 | 85 | 1012.9 |
| 20260506133035 | 58 | 124 | 9.0 | 18.0 | 0.00 | 0.00 | 0.00 | 86 | 1012.9 |
| 20260506131534 | 57 | 124 | 10.0 | 19.0 | 0.00 | 0.00 | 0.00 | 86 | 1012.8 |
| 20260506130013 | 57 | 202 | 11.0 | 19.0 | 0.00 | 0.00 | 0.00 | 86 | 1012.5 |
| 20260506124511 | 57 | 253 | 8.0 | 18.0 | 0.00 | 0.00 | 0.00 | 87 | 1012.6 |
| 20260506123040 | 57 | 124 | 9.0 | 22.0 | 0.00 | 0.00 | 0.00 | 87 | 1012.6 |
| 20260506121503 | 57 | 202 | 10.0 | 22.0 | 0.00 | 0.00 | 0.00 | 87 | 1012.4 |
| 20260506120125 | 56 | 193 | 12.0 | 25.0 | 0.00 | 0.00 | 0.00 | 88 | 1012.8 |
| 20260506114548 | 56 | 264 | 13.0 | 21.0 | 0.00 | 0.00 | 0.00 | 89 | 1012.9 |
| 20260506113110 | 55 | 124 | 14.0 | 23.0 | 0.00 | 0.00 | 0.00 | 89 | 1012.9 |
| 20260506111605 | 56 | 124 | 10.0 | 18.0 | 0.00 | 0.00 | 0.00 | 89 | 1012.9 |
| 20260506110012 | 56 | 124 | 8.0 | 16.0 | 0.00 | 0.00 | 0.00 | 90 | 1013.1 |
| 20260506104504 | 55 | 124 | 8.0 | 18.0 | 0.00 | 0.00 | 0.00 | 91 | 1013.2 |
| 20260506103025 | 55 | 124 | 9.0 | 19.0 | 0.00 | 0.00 | 0.00 | 92 | 1012.8 |
| 20260506101529 | 54 | 263 | 8.0 | 15.0 | 0.00 | 0.00 | 0.00 | 92 | 1013.0 |
| 20260506100054 | 54 | 202 | 9.0 | 16.0 | 0.00 | 0.00 | 0.00 | 93 | 1012.8 |
| 20260506094546 | 54 | 262 | 8.0 | 16.0 | 0.00 | 0.00 | 0.00 | 92 | 1012.8 |
| 20260506093051 | 54 | 124 | 10.0 | 19.0 | 0.00 | 0.00 | 0.00 | 92 | 1012.8 |
| 20260506091532 | 54 | 124 | 10.0 | 20.0 | 0.00 | 0.00 | 0.00 | 92 | 1013.1 |
| 20260506090018 | 54 | 258 | 8.0 | 16.0 | 0.00 | 0.00 | 0.00 | 92 | 1013.1 |
| 20260506084523 | 54 | 260 | 7.0 | 15.0 | 0.00 | 0.00 | 0.00 | 92 | 1013.2 |
| 20260506083041 | 54 | 260 | 8.0 | 15.0 | 0.00 | 0.00 | 0.00 | 92 | 1013.3 |
| 20260506081536 | 54 | 258 | 8.0 | 19.0 | 0.00 | 0.00 | 0.00 | 92 | 1013.2 |
| 20260506073104 | 54 | 275 | 10.0 | 17.0 | 0.00 | 0.00 | 0.00 | 92 | 1013.2 |
| 20260506071548 | 54 | 256 | 10.0 | 17.0 | 0.00 | 0.00 | 0.00 | 92 | 1013.4 |
| 20260506070108 | 54 | 264 | 10.0 | 17.0 | 0.00 | 0.00 | 0.00 | 92 | 1013.2 |
| 20260506061526 | 54 | 124 | 12.0 | 20.0 | 0.00 | 0.00 | 0.00 | 91 | 1013.0 |